Simultaneous Nadir Overpasses (SNOs) Predictions

Prediction of SNOs between AQUA and METOP-B Satellite Orbit:

Table of predicted SNOs for the next 14.0 days since TLE Epoch: 4/27/2024
Index Date (AQUA) Time (AQUA) Lat,Lon (AQUA) SZA (AQUA ) Date (METOP-B) Time (METOP-B) Lat,Lon (METOP-B) SZA (METOP-B ) Distance(km) Time Diff (sec)
1 04/29/2024 13:22:02 75.52, -23.06 60.72 04/29/2024 13:20:50 75.44, -23.80 60.66 22.32 72
2 04/29/2024 14:11:26 -75.64, 144.25 119.17 04/29/2024 14:11:27 -75.65, 144.17 119.16 2.42 1
3 04/29/2024 15:00:52 75.78, -48.53 60.97 04/29/2024 15:02:04 75.79, -48.04 60.98 13.43 72
4 05/02/2024 05:33:03 75.64, 93.89 60.04 05/02/2024 05:32:21 75.63, 93.87 60.03 1.35 42
5 05/02/2024 06:22:26 -75.71, -98.66 119.90 05/02/2024 06:23:01 -75.70, -98.59 119.92 2.26 35
6 05/04/2024 20:54:32 -75.46, 44.09 120.92 05/04/2024 20:53:21 -75.37, 42.84 120.99 36.15 71
7 05/04/2024 21:43:59 75.66,-148.84 59.28 05/04/2024 21:43:55 75.65,-148.97 59.28 3.58 4
8 05/04/2024 22:33:22 -75.73, 18.61 120.66 05/04/2024 22:34:35 -75.72, 18.58 120.67 0.79 73
9 05/07/2024 13:05:28 -75.66, 160.82 121.46 05/07/2024 13:04:48 -75.66, 160.81 121.45 0.21 40
10 05/07/2024 13:54:52 75.72, -31.70 58.60 05/07/2024 13:55:27 75.70, -31.73 58.58 1.88 35
11 05/10/2024 04:26:55 75.59, 110.69 57.77 05/10/2024 04:25:43 75.52, 110.14 57.71 17.42 72
12 05/10/2024 05:16:19 -75.71, -82.00 122.12 05/10/2024 05:16:21 -75.69, -82.00 122.13 2.19 2



Historial Predications of SNOs between AQUA and METOP-B
